EW4100 Weather Reports


time (UTC)temp
F
wind
direction
speed
knots
gust
knots
rain 1hr
in
rain 24hr
in
rain mn
in
humidity
%
barometer
mb
20260507093553 51 0 0.0 3.5 0.00 0.00 0.00 85 1021.5
20260507093057 51 0 0.0 3.5 0.00 0.00 0.00 85 1021.5
20260507092555 51 247 0.0 4.3 0.00 0.00 0.00 85 1021.4
20260507092055 51 0 0.0 4.3 0.00 0.00 0.00 85 1021.4
20260507091558 51 0 0.9 4.3 0.00 0.00 0.00 85 1021.5
20260507091054 51 183 0.0 3.5 0.00 0.00 0.00 85 1021.5
20260507090553 52 0 0.0 3.5 0.00 0.00 0.00 85 1021.5
20260507090054 52 0 0.0 3.5 0.00 0.00 0.00 85 1021.4
20260507085555 52 175 0.0 0.9 0.00 0.00 0.00 85 1021.6
20260507085055 52 0 0.0 0.9 0.00 0.00 0.00 86 1021.5
20260507084600 52 0 0.0 0.0 0.00 0.00 0.00 86 1021.4
20260507084054 52 0 0.0 0.9 0.00 0.00 0.00 86 1021.5
20260507083554 52 0 0.0 0.9 0.00 0.00 0.00 86 1021.5
20260507083108 52 0 0.0 4.3 0.00 0.00 0.00 86 1021.4
20260507082554 51 0 0.0 5.2 0.00 0.00 0.00 86 1021.4
20260507082058 51 169 0.9 5.2 0.00 0.00 0.00 86 1021.4
20260507081601 51 0 0.9 4.3 0.00 0.00 0.00 86 1021.3
20260507081054 51 0 0.0 3.5 0.00 0.00 0.00 86 1021.3
20260507080554 51 0 0.0 2.6 0.00 0.00 0.00 87 1021.3
20260507080053 51 105 0.0 3.5 0.00 0.00 0.00 87 1021.3
20260507075554 51 0 0.0 3.5 0.00 0.00 0.00 87 1021.2
20260507075054 51 0 0.0 0.0 0.00 0.00 0.00 87 1021.2
20260507074611 51 0 0.0 0.0 0.00 0.00 0.00 87 1021.3
20260507074053 51 0 0.0 0.0 0.00 0.00 0.00 87 1021.2
20260507073554 51 0 0.0 2.6 0.00 0.00 0.00 87 1021.3
20260507073100 51 0 0.0 2.6 0.00 0.00 0.00 87 1021.3
20260507072554 51 0 0.0 2.6 0.00 0.00 0.00 87 1021.2
20260507072054 51 0 0.0 0.9 0.00 0.00 0.00 87 1021.1
20260507071554 51 0 0.0 1.7 0.00 0.00 0.00 87 1021.0
20260507071054 51 0 0.0 1.7 0.00 0.00 0.00 86 1021.0
20260507070554 51 0 0.0 1.7 0.00 0.00 0.00 86 1021.1
20260507065554 51 0 0.0 1.7 0.00 0.00 0.00 86 1021.1
20260507065054 51 0 0.0 0.0 0.00 0.00 0.00 86 1021.1
20260507064555 51 0 0.0 0.0 0.00 0.00 0.00 86 1021.1
20260507064054 51 0 0.0 0.0 0.00 0.00 0.00 86 1021.1
20260507063553 51 0 0.0 0.0 0.00 0.00 0.00 85 1021.1
20260507063052 51 0 0.0 0.0 0.00 0.00 0.00 85 1021.2
20260507062553 51 0 0.0 1.7 0.00 0.00 0.00 85 1021.3
20260507062055 51 0 0.0 2.6 0.00 0.00 0.00 84 1021.1
20260507061553 51 0 0.0 2.6 0.00 0.00 0.00 84 1021.1
20260507061053 52 0 0.0 0.0 0.00 0.00 0.00 84 1021.2
20260507060554 52 0 0.0 0.0 0.00 0.00 0.00 83 1021.2
20260507060057 52 0 0.0 0.0 0.00 0.00 0.00 83 1021.3
20260507055554 52 0 0.0 1.7 0.00 0.00 0.00 83 1021.1
20260507055054 52 0 0.0 1.7 0.00 0.00 0.00 82 1021.2
20260507054553 53 0 0.0 1.7 0.00 0.00 0.00 82 1021.3
20260507054054 53 0 0.0 1.7 0.00 0.00 0.00 82 1021.3
20260507053554 53 0 0.0 2.6 0.00 0.00 0.00 82 1021.4
20260507053055 53 0 0.0 2.6 0.00 0.00 0.00 82 1021.3
20260507052557 53 0 0.0 1.7 0.00 0.00 0.00 82 1021.4
20260507052054 53 0 0.0 1.7 0.00 0.00 0.00 81 1021.4
20260507051555 53 0 0.0 1.7 0.00 0.00 0.00 81 1021.4
20260507051055 53 0 0.0 4.3 0.00 0.00 0.00 82 1021.4
20260507050557 53 0 0.0 4.3 0.00 0.00 0.00 82 1021.4
20260507050052 53 155 0.0 0.9 0.00 0.00 0.00 82 1021.3
20260507045557 53 0 0.0 0.0 0.00 0.00 0.00 83 1021.4
20260507045055 53 0 0.0 0.0 0.00 0.00 0.00 83 1021.4
20260507044647 53 0 0.0 0.0 0.00 0.00 0.00 83 1021.4
20260507044124 53 0 0.0 0.0 0.00 0.00 0.00 83 1021.4
20260507043555 54 0 0.0 0.0 0.00 0.00 0.00 82 1021.3
20260507043053 54 0 0.0 0.0 0.00 0.00 0.00 82 1021.3
20260507042555 54 0 0.0 0.0 0.00 0.00 0.00 82 1021.3
20260507042054 54 0 0.0 0.0 0.00 0.00 0.00 82 1021.3
20260507041555 54 0 0.0 0.0 0.00 0.00 0.00 82 1021.2
20260507041054 54 0 0.0 0.0 0.00 0.00 0.00 82 1021.2
20260507040555 54 0 0.0 0.0 0.00 0.00 0.00 82 1021.3
20260507040055 54 0 0.0 0.0 0.00 0.00 0.00 81 1021.1
20260507035555 54 0 0.0 0.0 0.00 0.00 0.00 81 1021.1
20260507035054 54 0 0.0 0.0 0.00 0.00 0.00 81 1021.1
20260507034556 55 0 0.0 0.0 0.00 0.00 0.00 80 1021.1
20260507034054 55 0 0.0 0.0 0.00 0.00 0.00 80 1021.1
20260507033554 55 0 0.0 0.0 0.00 0.00 0.00 80 1021.1
20260507033054 55 0 0.0 0.0 0.00 0.00 0.00 80 1021.0
20260507032555 55 0 0.0 0.0 0.00 0.00 0.00 79 1021.0
20260507032055 55 0 0.0 0.0 0.00 0.00 0.00 79 1021.0
20260507031557 55 0 0.0 0.0 0.00 0.00 0.00 79 1021.0
20260507031114 55 0 0.0 0.0 0.00 0.00 0.00 79 1021.0
20260507030553 55 0 0.0 0.0 0.00 0.00 0.00 78 1021.0
20260507030059 55 0 0.0 0.0 0.00 0.00 0.00 78 1021.0
20260507025600 55 0 0.0 0.0 0.00 0.00 0.00 78 1021.0
20260507025057 55 0 0.0 0.0 0.00 0.00 0.00 77 1020.9
20260507024618 55 0 0.0 0.0 0.00 0.00 0.00 77 1020.9
20260507024054 55 0 0.0 0.0 0.00 0.00 0.00 77 1020.9
20260507023559 55 0 0.0 0.0 0.00 0.00 0.00 77 1020.8
20260507023054 55 0 0.0 2.6 0.00 0.00 0.00 76 1020.8
20260507022555 55 0 0.0 2.6 0.00 0.00 0.00 76 1020.9
20260507022055 56 0 0.0 1.7 0.00 0.00 0.00 76 1020.8
20260507021554 56 0 0.0 1.7 0.00 0.00 0.00 76 1020.8
20260507021058 56 0 0.0 3.5 0.00 0.00 0.00 76 1020.7
20260507020554 56 0 0.0 3.5 0.00 0.00 0.00 76 1020.8
20260507020109 56 70 0.0 5.2 0.00 0.00 0.00 76 1020.7
20260507015554 56 159 0.9 5.2 0.00 0.00 0.00 75 1020.8
20260507015055 56 193 0.9 4.3 0.00 0.00 0.00 76 1020.7
20260507014608 56 239 0.0 2.6 0.00 0.00 0.00 76 1020.7
20260507014053 56 0 0.0 1.7 0.00 0.00 0.00 75 1020.7
20260507013552 56 0 0.0 1.7 0.00 0.00 0.00 75 1020.7
20260507013111 56 0 0.0 4.3 0.00 0.00 0.00 74 1020.7
20260507012555 56 148 0.0 4.3 0.00 0.00 0.00 75 1020.7
20260507012058 56 107 0.0 4.3 0.00 0.00 0.00 74 1020.9
20260507011553 56 0 0.0 5.2 0.00 0.00 0.00 74 1020.8
20260507011054 56 275 0.9 5.2 0.00 0.00 0.00 74 1020.8
20260507010554 56 211 0.9 4.3 0.00 0.00 0.00 74 1020.8
20260507010056 56 0 0.9 4.3 0.00 0.00 0.00 74 1020.9
20260507005555 56 0 0.0 2.6 0.00 0.00 0.00 74 1020.8
20260507005054 56 254 0.0 5.2 0.00 0.00 0.00 75 1020.9
20260507004553 56 0 0.9 5.2 0.00 0.00 0.00 74 1020.9
20260507004104 56 278 0.9 3.5 0.00 0.00 0.00 74 1020.9
20260507003554 56 215 0.9 3.5 0.00 0.00 0.00 73 1020.9
20260507003053 56 112 0.9 5.2 0.00 0.00 0.00 73 1020.9
20260507002555 56 224 1.7 6.1 0.00 0.00 0.00 73 1020.9
20260507002057 56 194 0.9 6.1 0.00 0.00 0.00 73 1020.9
20260507001557 56 202 1.7 6.1 0.00 0.00 0.00 73 1020.8
20260507001058 56 0 1.7 6.1 0.00 0.00 0.00 73 1020.7
20260507000554 56 0 0.0 6.1 0.00 0.00 0.00 73 1020.7
20260507000054 56 213 0.9 6.1 0.00 0.00 0.00 73 1020.8
20260506235555 56 0 0.9 5.2 0.00 0.00 0.00 73 1020.8
20260506235054 56 0 0.0 6.1 0.00 0.00 0.00 72 1020.8
20260506234659 56 0 0.9 6.1 0.00 0.00 0.00 72 1020.7
20260506234609 56 0 0.9 6.1 0.00 0.00 0.00 72 1020.7
20260506234057 56 0 0.9 6.1 0.00 0.00 0.00 72 1020.7
20260506233554 56 180 1.7 6.1 0.00 0.00 0.00 71 1020.7
20260506233059 56 131 0.9 4.3 0.00 0.00 0.00 72 1020.7
20260506232553 56 138 0.9 7.8 0.00 0.00 0.00 72 1020.8
20260506232050 56 0 0.9 7.8 0.00 0.00 0.00 73 1020.8
20260506231600 56 123 0.9 7.8 0.00 0.00 0.00 72 1020.7
20260506231051 56 0 0.9 5.2 0.00 0.00 0.00 74 1020.7
20260506230555 56 173 1.7 5.2 0.00 0.00 0.00 73 1020.7
20260506230059 56 0 0.0 3.5 0.00 0.00 0.00 74 1020.8
20260506225554 56 0 0.0 4.3 0.00 0.00 0.00 73 1020.8
20260506224554 56 186 0.0 5.2 0.00 0.00 0.00 75 1020.8
20260506224053 56 0 1.7 7.0 0.00 0.00 0.00 75 1021.0
20260506223554 55 228 0.9 7.0 0.00 0.00 0.00 75 1020.9
20260506223057 55 200 0.9 6.1 0.00 0.00 0.00 76 1020.9
20260506222554 55 0 1.7 6.1 0.00 0.00 0.00 74 1020.9
20260506222054 55 174 0.9 8.7 0.00 0.00 0.00 74 1021.0
20260506221601 55 93 1.7 8.7 0.00 0.00 0.00 75 1021.0
20260506221051 56 165 1.7 6.1 0.00 0.00 0.00 74 1021.1
20260506220555 56 173 0.9 7.8 0.00 0.00 0.00 75 1021.1
20260506220057 56 191 1.7 7.8 0.00 0.00 0.00 75 1021.1
20260506215555 56 0 0.9 3.5 0.00 0.00 0.00 77 1021.1
20260506215054 55 195 0.0 3.5 0.00 0.00 0.00 78 1021.0
20260506214555 55 209 0.9 2.6 0.00 0.00 0.00 77 1021.1
20260506214055 55 0 0.0 5.2 0.00 0.00 0.00 77 1021.1
20260506213554 55 0 0.0 7.0 0.00 0.00 0.00 77 1021.1
20260506213113 55 0 0.9 7.0 0.00 0.00 0.00 77 1021.0
20260506212555 55 190 0.9 7.0 0.00 0.00 0.00 78 1021.0
20260506212055 55 0 0.0 4.3 0.00 0.00 0.00 79 1021.1
20260506211611 55 159 0.0 4.3 0.00 0.00 0.00 79 1021.1
20260506211054 55 0 0.0 2.6 0.00 0.00 0.00 80 1021.1
20260506210554 55 0 0.0 4.3 0.00 0.00 0.00 80 1021.0
20260506205553 55 0 0.0 2.6 0.00 0.00 0.00 80 1021.0
20260506205055 55 0 0.0 3.5 0.00 0.00 0.00 80 1021.0
20260506204600 55 147 0.0 3.5 0.00 0.00 0.00 80 1021.0
20260506204055 54 182 0.0 3.5 0.00 0.00 0.00 81 1021.0
20260506203554 54 0 0.0 7.0 0.00 0.00 0.00 82 1021.0
20260506203058 54 115 2.6 7.0 0.00 0.00 0.00 80 1020.9
20260506202559 54 0 0.0 8.7 0.00 0.00 0.00 82 1020.9
20260506202059 54 231 2.6 8.7 0.00 0.00 0.00 81 1021.0
20260506201610 54 234 1.7 7.0 0.00 0.00 0.00 80 1021.1
20260506201058 54 205 1.7 7.0 0.00 0.00 0.00 81 1021.0
20260506200554 55 199 2.6 8.7 0.00 0.00 0.00 80 1021.0
20260506195554 55 229 2.6 8.7 0.00 0.00 0.00 80 1020.9
20260506195057 55 0 2.6 8.7 0.00 0.00 0.00 80 1020.8
20260506194619 55 196 1.7 5.2 0.00 0.00 0.00 80 1020.8
20260506194057 55 0 0.9 5.2 0.00 0.00 0.00 81 1020.7
20260506193554 55 72 1.7 5.2 0.00 0.00 0.00 82 1020.7
20260506193058 55 258 0.9 7.0 0.00 0.00 0.00 83 1020.7
20260506192554 55 145 1.7 8.7 0.00 0.00 0.00 83 1020.8
20260506192055 54 238 1.7 8.7 0.00 0.00 0.00 83 1020.7
20260506191600 54 145 0.9 4.3 0.00 0.00 0.00 84 1020.7
20260506191056 54 189 0.9 4.3 0.00 0.00 0.00 85 1020.7
20260506190556 54 0 0.0 6.1 0.00 0.00 0.00 85 1020.7
20260506190055 54 0 1.7 6.1 0.00 0.00 0.00 86 1020.7
20260506185555 53 124 0.9 4.3 0.00 0.00 0.00 86 1020.6
20260506185057 53 212 1.7 4.3 0.00 0.00 0.00 86 1020.7
20260506184607 54 225 1.7 5.2 0.00 0.00 0.00 87 1020.8
20260506184054 54 125 0.0 5.2 0.00 0.00 0.00 87 1020.7
20260506183554 54 210 0.0 3.5 0.00 0.00 0.00 86 1020.6
20260506183101 54 159 0.9 3.5 0.00 0.00 0.00 86 1020.7
20260506182553 54 269 0.0 2.6 0.00 0.00 0.00 86 1020.6
20260506182056 54 115 0.0 5.2 0.00 0.00 0.00 85 1020.7
20260506181553 54 0 0.9 5.2 0.00 0.00 0.00 84 1020.6
20260506181054 54 154 0.9 7.0 0.00 0.00 0.00 84 1020.7
20260506180555 54 0 0.9 7.0 0.00 0.00 0.00 83 1020.6
20260506175554 54 228 0.9 4.3 0.00 0.00 0.00 84 1020.4
20260506175054 54 0 0.9 6.1 0.00 0.00 0.00 85 1020.2
20260506174553 54 157 0.9 6.1 0.00 0.00 0.00 85 1020.2
20260506174054 54 253 0.0 5.2 0.00 0.00 0.00 86 1020.3
20260506173551 54 259 1.7 5.2 0.00 0.00 0.00 86 1020.3
20260506173054 53 147 0.0 5.2 0.00 0.00 0.00 87 1020.5
20260506172556 53 281 0.9 5.2 0.00 0.00 0.00 87 1020.5
20260506172054 53 200 0.9 5.2 0.00 0.00 0.00 87 1020.6
20260506171554 53 0 0.0 5.2 0.00 0.00 0.00 88 1020.5
20260506171057 53 0 0.9 5.2 0.00 0.00 0.00 87 1020.5
20260506170551 53 0 0.0 3.5 0.00 0.00 0.00 87 1020.5
20260506170109 53 0 0.0 1.7 0.00 0.00 0.00 88 1020.5
20260506165553 53 242 0.0 5.2 0.00 0.00 0.00 88 1020.5
20260506165054 53 0 0.9 5.2 0.00 0.00 0.00 88 1020.4
20260506164553 53 0 0.9 4.3 0.00 0.00 0.00 87 1020.3
20260506164050 53 171 0.9 4.3 0.00 0.00 0.00 87 1020.3
20260506163558 53 178 0.9 4.3 0.00 0.00 0.00 86 1020.3
20260506163102 53 199 0.9 4.3 0.00 0.00 0.00 86 1020.3
20260506162554 54 235 0.0 3.5 0.00 0.00 0.00 87 1020.2
20260506162054 54 169 0.9 6.1 0.00 0.00 0.00 86 1020.1
20260506161553 54 0 1.7 6.1 0.00 0.00 0.00 86 1020.1
20260506161054 54 259 0.9 3.5 0.00 0.00 0.00 87 1020.1
20260506160551 53 0 0.0 4.3 0.00 0.00 0.00 86 1020.0
20260506160056 53 155 0.9 4.3 0.00 0.00 0.00 87 1020.0
20260506155553 53 182 0.0 5.2 0.00 0.00 0.00 87 1019.8
20260506155057 53 0 0.0 5.2 0.00 0.00 0.00 86 1019.8
20260506154555 53 197 0.9 4.3 0.00 0.00 0.00 87 1019.9
20260506154054 53 0 0.0 3.5 0.00 0.00 0.00 87 1020.0
20260506153554 53 176 0.0 4.3 0.00 0.00 0.00 87 1019.9
20260506153053 53 182 1.7 4.3 0.00 0.00 0.00 86 1020.1
20260506152553 53 232 0.9 3.5 0.00 0.00 0.00 87 1020.2
20260506152053 53 250 1.7 6.1 0.00 0.00 0.00 87 1020.2
20260506151555 53 178 1.7 6.1 0.00 0.00 0.00 86 1020.1
20260506151055 53 200 0.0 3.5 0.00 0.00 0.00 86 1020.1
20260506150554 53 217 0.9 3.5 0.00 0.00 0.00 86 1019.9
20260506150053 53 0 0.9 2.6 0.00 0.00 0.00 86 1019.9
20260506145553 53 0 0.0 2.6 0.00 0.00 0.00 86 1019.8
20260506145056 53 0 0.9 3.5 0.00 0.00 0.00 86 1019.8
20260506144603 53 182 0.0 3.5 0.00 0.00 0.00 86 1019.9
20260506144054 53 0 0.0 3.5 0.00 0.00 0.00 86 1019.9
20260506143555 53 0 0.0 3.5 0.00 0.00 0.00 86 1019.8
20260506143102 53 0 0.9 3.5 0.00 0.00 0.00 86 1020.0
20260506142557 53 153 0.0 3.5 0.00 0.00 0.00 86 1019.9
20260506142057 53 194 0.0 4.3 0.00 0.00 0.00 86 1019.9
20260506141552 53 0 0.9 4.3 0.00 0.00 0.00 86 1019.8
20260506141054 53 199 0.0 2.6 0.00 0.00 0.00 86 1019.8
20260506140557 53 0 0.0 3.5 0.00 0.00 0.00 86 1019.8
20260506140053 53 172 0.0 4.3 0.00 0.00 0.00 86 1019.9
20260506135552 53 0 0.9 4.3 0.00 0.00 0.00 86 1019.7
20260506135054 53 0 0.9 3.5 0.00 0.00 0.00 85 1019.8
20260506134553 53 0 0.0 3.5 0.00 0.00 0.00 86 1019.9
20260506134055 53 213 0.9 3.5 0.00 0.00 0.00 86 1019.8
20260506133554 53 0 0.9 2.6 0.00 0.00 0.00 86 1019.5
20260506133057 53 0 0.0 4.3 0.00 0.00 0.00 85 1019.6
20260506132551 53 0 0.0 4.3 0.00 0.00 0.00 85 1019.6
20260506132056 53 0 0.0 1.7 0.00 0.00 0.00 85 1019.5
20260506131556 53 268 0.0 3.5 0.00 0.00 0.00 86 1019.5
20260506131054 53 0 0.0 3.5 0.00 0.00 0.00 85 1019.4
20260506130553 53 209 0.0 3.5 0.00 0.00 0.00 85 1019.3
20260506130100 53 0 0.0 3.5 0.00 0.00 0.00 85 1019.3
20260506125556 53 0 0.0 4.3 0.00 0.00 0.00 85 1018.8
20260506125054 53 169 1.7 5.2 0.00 0.00 0.00 85 1019.2
20260506124556 53 0 0.0 5.2 0.00 0.00 0.00 85 1019.1
20260506124054 53 183 2.6 5.2 0.00 0.00 0.00 85 1019.2
20260506123557 53 0 0.0 4.3 0.00 0.00 0.00 86 1019.3
20260506123056 53 218 0.0 4.3 0.00 0.00 0.00 86 1019.2
20260506122554 53 173 0.0 3.5 0.00 0.00 0.00 85 1019.1
20260506122053 53 0 0.0 3.5 0.00 0.00 0.00 85 1018.9
20260506121558 53 140 0.0 1.7 0.00 0.00 0.00 86 1018.9
20260506121054 53 0 0.0 1.7 0.00 0.00 0.00 86 1019.0
20260506120554 53 0 0.0 1.7 0.00 0.00 0.00 86 1019.0
20260506120111 53 0 0.0 2.6 0.00 0.00 0.00 86 1019.0
20260506115554 53 0 0.0 2.6 0.00 0.00 0.00 86 1019.0
20260506115054 53 0 0.0 2.6 0.00 0.00 0.00 86 1018.9
20260506114557 53 0 0.0 3.5 0.00 0.00 0.00 86 1018.9
20260506114053 53 0 0.9 3.5 0.00 0.00 0.00 86 1018.9
20260506113554 53 0 0.0 3.5 0.00 0.00 0.00 86 1018.8
20260506113102 53 171 0.0 5.2 0.00 0.00 0.00 86 1018.6
20260506112555 53 194 0.0 5.2 0.00 0.00 0.00 86 1018.6
20260506112050 53 186 0.0 5.2 0.00 0.00 0.00 86 1018.5
20260506111554 53 0 0.0 5.2 0.00 0.00 0.00 87 1018.5
20260506111054 53 184 0.0 5.2 0.00 0.00 0.00 87 1018.5
20260506110557 52 262 0.9 5.2 0.00 0.00 0.00 87 1018.4
20260506110057 52 0 0.0 2.6 0.00 0.00 0.00 87 1018.5
20260506105553 52 0 0.0 3.5 0.00 0.00 0.00 88 1018.4
20260506105053 52 0 0.0 3.5 0.00 0.00 0.00 88 1018.3
20260506104601 52 144 0.9 7.0 0.00 0.00 0.00 88 1018.3
20260506104053 52 267 1.7 7.0 0.00 0.00 0.00 88 1018.3
20260506103550 52 0 0.0 6.1 0.00 0.00 0.00 90 1018.3
20260506103055 52 0 0.0 7.0 0.00 0.00 0.00 90 1018.3
20260506102551 51 0 1.7 7.0 0.00 0.00 0.00 90 1018.3
20260506102057 51 187 0.0 2.6 0.00 0.00 0.00 90 1018.3
20260506101554 51 0 0.0 2.6 0.00 0.00 0.00 90 1018.3
20260506101054 51 0 0.0 1.7 0.00 0.00 0.00 90 1018.3
20260506100554 51 0 0.0 1.7 0.00 0.00 0.00 90 1018.2
20260506100053 51 0 0.0 0.0 0.00 0.00 0.00 90 1018.2
20260506095551 51 0 0.0 0.0 0.00 0.00 0.00 90 1018.1
20260506095057 51 0 0.0 0.0 0.00 0.00 0.00 90 1018.1
20260506094603 51 0 0.0 0.9 0.00 0.00 0.00 90 1018.0
20260506094054 51 0 0.0 0.9 0.00 0.00 0.00 90 1018.0